Back to catalog

STARLINK-37819

AliveCommunicationsSSO
NORAD 69652·PAYLOAD·🇺🇸 United States

Launched Jun 21, 2026 from Vandenberg Space Force Base

Loading…

Next Passes (next 24 hours)

TLE

FreshSource: CelesTrak SupGP

Epoch: Sep 15, 2026, 03:00 UTC

1 69652C 26143D   26258.12548611 -.00012257  00000+0 -38048-3 0  2587
2 69652  97.2837 301.3424 0001050  94.9183 335.7375 15.33446491    17

Track STARLINK-37819 in real time with AllMySat

Download on the App Store